Location: Unspecified
(0.0000°N, 0.0000°E)
Time: 03:17:52
(UTC+00:00)

Courier 1B Rocket - Pass Details

Date: 17 December 2018
Orbit: 920 x 1202 km, 28.3° (Epoch: 16 January)

Event Time Altitude Azimuth Distance (km) Brightness Sun altitude
Rises 06:01:41 0° 263° (W) 3,553 7.4 1.3°
Reaches altitude 10° 06:04:38 10° 274° (W) 2,602 6.7 2.0°
Maximum altitude 06:09:56 29° 332° (NNW) 1,620 5.8 3.2°
Drops below altitude 10° 06:15:19 10° 31° (NNE) 2,646 7.4 4.4°
Sets 06:18:21 0° 42° (NE) 3,623 8.2 5.1°
